Stations météo

réclame
Mon MeteoGroup
Santander/Parayas, Espagne (8021): Température de l'air & dewpoint: 15.01.2019 17:00:00 - 21.01.2019 17:00:00 (CET)Santander/Parayas, Espagne (8021): Vitesse du vent: 15.01.2019 17:00:00 - 21.01.2019 17:00:00 (CET)Santander/Parayas, Espagne (8021): Direction du vent: 15.01.2019 17:00:00 - 21.01.2019 17:00:00 (CET)Santander/Parayas, Espagne (8021): reduced air pressure: 15.01.2019 17:00:00 - 21.01.2019 17:00:00 (CET)Santander/Parayas, Espagne (8021): visibility: 15.01.2019 17:00:00 - 21.01.2019 17:00:00 (CET)
Date & Time tt [°C] td [°C] ff [km/h] ff [knt] dd ppp [hPa] vv [km]
21.01.2019 17:00:00 - - - - - - -
21.01.2019 16:00:00 11,2 5,7 11 6 N 1024,5 30
21.01.2019 15:00:00 11,4 5,2 15 8 NNW 1024,8 -
21.01.2019 14:00:00 11,6 5,3 11 6 N 1025,2 -
21.01.2019 13:00:00 10,6 5,1 11 6 N 1025,8 25
21.01.2019 12:00:00 10,0 4,9 8 4 NE 1026,3 -
21.01.2019 11:00:00 9,8 5,1 8 4 N 1026,0 -
21.01.2019 10:00:00 9,1 3,9 4 2 NE 1025,3 15
21.01.2019 09:00:00 8,9 3,8 9 5 N 1024,6 -
21.01.2019 08:00:00 9,3 5,3 11 6 N 1024,2 -
21.01.2019 07:00:00 8,2 7,3 5 3 WNW 1023,6 12
21.01.2019 06:00:00 9,2 7,6 8 4 NE 1023,0 -
21.01.2019 05:00:00 8,7 7,9 5 3 N 1022,6 -
21.01.2019 04:00:00 8,5 6,6 5 3 W 1022,4 -
21.01.2019 03:00:00 9,1 6,9 5 3 N 1022,4 -
21.01.2019 02:00:00 8,7 7,0 11 6 WSW 1022,2 -
21.01.2019 01:00:00 9,9 7,1 13 7 NNW 1022,2 -
21.01.2019 00:00:00 10,4 6,9 16 9 NW 1021,6 -
20.01.2019 23:00:00 9,2 7,3 9 5 W 1021,4 -
20.01.2019 22:00:00 9,7 7,6 8 4 W 1020,9 30
20.01.2019 21:00:00 8,6 7,7 13 7 N 1020,6 -
20.01.2019 20:00:00 9,7 8,0 8 4 WSW 1020,1 -
20.01.2019 19:00:00 10,0 7,4 18 10 NNW 1019,6 15
20.01.2019 18:00:00 10,7 7,6 15 8 NW 1018,9 -
20.01.2019 17:00:00 11,8 7,6 15 8 NW 1018,3 -
20.01.2019 16:00:00 11,9 8,6 18 10 NW 1017,7 30
20.01.2019 15:00:00 12,5 8,2 18 10 NW 1017,4 -
20.01.2019 14:00:00 10,6 8,3 18 10 NW 1017,3 -
20.01.2019 13:00:00 11,4 9,0 11 6 W 1017,5 25
20.01.2019 12:00:00 10,8 8,7 13 7 W 1017,2 -
20.01.2019 11:00:00 10,2 7,9 18 10 WNW 1016,5 -
20.01.2019 10:00:00 10,3 8,6 16 9 W 1015,3 25
20.01.2019 09:00:00 8,7 7,3 11 6 W 1014,6 -
20.01.2019 08:00:00 9,5 6,8 11 6 W 1014,3 -
20.01.2019 07:00:00 9,5 6,8 16 9 WNW 1013,6 20
20.01.2019 06:00:00 10,9 7,2 16 9 NW 1012,9 -
20.01.2019 05:00:00 10,9 8,0 16 9 NW 1012,7 -
20.01.2019 04:00:00 10,9 9,2 21 11 NW 1011,9 -
20.01.2019 03:00:00 11,0 10,4 16 9 NNW 1011,4 -
20.01.2019 02:00:00 8,7 8,7 9 5 SSW 1010,9 -
20.01.2019 01:00:00 8,2 8,2 9 5 SW 1010,6 -
20.01.2019 00:00:00 7,9 7,6 11 6 SSW 1009,9 -
19.01.2019 23:00:00 7,7 6,9 8 4 SW 1009,1 -
19.01.2019 22:00:00 8,7 6,5 9 5 WSW 1008,2 15
19.01.2019 21:00:00 9,8 5,2 9 5 WSW 1007,4 -
19.01.2019 20:00:00 9,9 4,9 18 10 S 1006,6 -
19.01.2019 19:00:00 9,6 5,2 16 9 SSW 1006,3 20
19.01.2019 18:00:00 9,4 5,4 24 13 S 1006,2 -
19.01.2019 17:00:00 9,9 4,7 22 12 S 1007,0 -
19.01.2019 16:00:00 10,0 5,2 22 12 S 1008,0 35
19.01.2019 15:00:00 10,7 4,9 28 15 S 1008,7 -
19.01.2019 14:00:00 11,3 4,0 24 13 S 1009,4 -
19.01.2019 13:00:00 11,2 3,8 22 12 S 1011,0 35
19.01.2019 12:00:00 11,0 3,8 28 15 S 1012,5 -
19.01.2019 11:00:00 10,5 3,9 22 12 SSW 1013,0 -
19.01.2019 10:00:00 9,6 3,6 22 12 S 1013,1 30
19.01.2019 09:00:00 8,5 3,5 21 11 S 1013,5 -
19.01.2019 08:00:00 8,3 4,3 15 8 SSW 1013,8 -
19.01.2019 07:00:00 8,1 4,5 13 7 SW 1013,9 20
19.01.2019 06:00:00 8,2 5,1 16 9 SSW 1014,1 -
19.01.2019 05:00:00 8,6 5,5 16 9 SSW 1014,8 -
19.01.2019 04:00:00 9,0 6,1 15 8 SW 1015,5 -
19.01.2019 03:00:00 9,1 6,7 21 11 SSW 1015,6 -
19.01.2019 02:00:00 9,0 7,0 15 8 SSW 1016,0 -
19.01.2019 01:00:00 9,0 7,3 16 9 SSW 1016,4 -
19.01.2019 00:00:00 8,8 7,7 16 9 SSW 1016,8 -
18.01.2019 23:00:00 8,9 7,1 15 8 SSW 1016,5 -
18.01.2019 22:00:00 9,1 6,5 15 8 SW 1016,1 12
18.01.2019 21:00:00 8,9 6,5 11 6 SSW 1016,2 -
18.01.2019 20:00:00 9,1 6,2 8 4 W 1016,3 -
18.01.2019 19:00:00 9,4 5,8 0 0 N 1016,2 25
18.01.2019 18:00:00 10,0 4,6 8 4 S 1016,3 -
18.01.2019 17:00:00 11,1 5,0 8 4 S 1016,8 -
18.01.2019 16:00:00 11,8 4,4 9 5 S 1017,1 30
18.01.2019 15:00:00 11,7 4,0 11 6 SSW 1017,7 -
18.01.2019 14:00:00 11,0 5,3 11 6 SSW 1018,3 -
18.01.2019 13:00:00 10,0 5,5 11 6 S 1019,2 25
18.01.2019 12:00:00 9,1 5,1 9 5 SSW 1020,0 -
18.01.2019 11:00:00 8,4 4,8 15 8 SSW 1020,2 -
18.01.2019 10:00:00 7,8 4,6 11 6 SSW 1020,1 20
18.01.2019 09:00:00 7,6 4,4 11 6 SSW 1019,9 -
18.01.2019 08:00:00 7,3 4,6 9 5 SSW 1019,8 -
18.01.2019 07:00:00 7,3 4,9 11 6 SSW 1020,0 20
18.01.2019 06:00:00 7,0 5,5 13 7 SSW 1020,6 -
18.01.2019 05:00:00 6,8 5,4 8 4 SSW 1021,2 -
18.01.2019 04:00:00 6,8 5,4 0 0 N 1021,6 -
18.01.2019 03:00:00 7,2 5,7 13 7 SSW 1021,8 -
18.01.2019 02:00:00 7,6 6,1 9 5 SSW 1022,5 -
18.01.2019 01:00:00 7,7 6,2 9 5 SSW 1022,9 -
18.01.2019 00:00:00 7,5 6,4 8 4 S 1023,1 -
17.01.2019 23:00:00 7,7 6,5 11 6 SSW 1023,0 -
17.01.2019 22:00:00 7,5 6,3 11 6 SSW 1022,8 18
17.01.2019 21:00:00 7,3 6,4 8 4 SW 1023,0 -
17.01.2019 20:00:00 7,7 5,5 8 4 NNE 1023,1 -
17.01.2019 19:00:00 8,7 6,0 11 6 WSW 1022,5 18
17.01.2019 18:00:00 9,4 6,8 13 7 WSW 1022,0 -
17.01.2019 17:00:00 9,3 7,2 9 5 SW 1021,6 -
17.01.2019 16:00:00 9,5 6,9 9 5 W 1021,5 18
17.01.2019 15:00:00 9,2 7,8 13 7 W 1021,6 -
17.01.2019 14:00:00 10,8 7,0 24 13 WNW 1021,5 -
17.01.2019 13:00:00 11,6 7,1 16 9 WSW 1021,7 20
17.01.2019 12:00:00 10,8 7,8 13 7 SW 1022,2 -
17.01.2019 11:00:00 8,6 6,4 13 7 SW 1022,3 -
17.01.2019 10:00:00 8,6 6,6 15 8 SW 1021,7 25
17.01.2019 09:00:00 8,6 6,9 13 7 SW 1020,9 -
17.01.2019 08:00:00 8,3 6,6 13 7 SW 1020,4 -
17.01.2019 07:00:00 8,8 7,6 15 8 SW 1020,0 20
17.01.2019 06:00:00 8,8 8,3 15 8 SSW 1019,4 -
17.01.2019 05:00:00 8,8 8,3 15 8 WSW 1019,3 -
17.01.2019 04:00:00 9,1 9,0 9 5 SSW 1019,3 -
17.01.2019 03:00:00 9,5 9,2 9 5 SW 1018,8 -
17.01.2019 02:00:00 8,8 8,8 9 5 S 1018,7 -
17.01.2019 01:00:00 8,8 8,2 9 5 WSW 1018,4 -
17.01.2019 00:00:00 9,4 8,0 11 6 SW 1018,2 -
16.01.2019 23:00:00 9,8 5,4 18 10 SSW 1017,7 -
16.01.2019 22:00:00 9,7 5,1 18 10 SSW 1017,7 12
16.01.2019 21:00:00 9,4 5,5 15 8 SSW 1017,7 -
16.01.2019 20:00:00 9,9 5,9 11 6 SW 1017,4 -
16.01.2019 19:00:00 11,3 5,8 11 6 SSW 1016,8 15
16.01.2019 18:00:00 11,5 5,8 9 5 SW 1016,7 -
16.01.2019 17:00:00 12,2 5,8 9 5 SW 1016,2 -
16.01.2019 16:00:00 13,2 6,2 13 7 SSW 1016,1 15
16.01.2019 15:00:00 13,2 5,8 15 8 SW 1016,0 -
16.01.2019 14:00:00 13,4 6,1 18 10 SSW 1016,4 -
16.01.2019 13:00:00 12,4 6,1 16 9 SSW 1016,9 18
16.01.2019 12:00:00 10,7 6,1 15 8 SSW 1017,9 -
16.01.2019 11:00:00 9,8 7,5 15 8 SSW 1017,9 -
16.01.2019 10:00:00 6,2 6,2 9 5 SSW 1017,6 15
16.01.2019 09:00:00 2,3 2,3 4 2 W 1017,4 -
16.01.2019 08:00:00 1,3 1,3 8 4 WNW 1016,7 -
16.01.2019 07:00:00 1,6 1,6 2 1 WNW 1016,4 12
16.01.2019 06:00:00 0,7 0,7 4 2 SSW 1016,3 -
16.01.2019 05:00:00 0,2 0,2 0 0 N 1016,5 -
16.01.2019 04:00:00 0,5 0,5 0 0 N 1017,0 -
16.01.2019 03:00:00 1,2 1,2 0 0 N 1017,2 -
16.01.2019 02:00:00 1,9 1,9 4 2 SSW 1017,5 -
16.01.2019 01:00:00 2,4 2,4 0 0 N 1017,9 -
16.01.2019 00:00:00 3,5 3,5 4 2 W 1018,4 -
15.01.2019 23:00:00 2,7 2,4 5 3 SW 1018,8 -
15.01.2019 22:00:00 3,6 2,9 0 0 N 1019,0 25
15.01.2019 21:00:00 5,1 4,2 2 1 SSW 1019,3 -
15.01.2019 20:00:00 7,1 5,7 8 4 E 1019,4 -
15.01.2019 19:00:00 7,9 5,4 4 2 E 1019,5 30
15.01.2019 18:00:00 10,4 7,2 11 6 ENE 1019,4 -
15.01.2019 17:00:00 11,6 7,5 16 9 ENE 1019,3 -

tt = Température de l'air
td = dewpoint
ff = Vitesse du vent
dd = Direction du vent
ppp = reduced air pressure
vv = visibility

stations d'obs. à proximité